Date String (YYYY-MM-DD hh:mm:ss) UTC,Instrument flags,Ambient pressure (hPa),Sample flow (lpm),Bypass flow (lpm),Sample temperature (°C),Ambient temperature (°C),ASC tube jacket temperature (°C),LED temperature (°C),Box temperature (°C),Sample RH (%),Span deviation,Mass concentration (μg/m³),Mass concentration (μg/m³),Mass concentration (μg/m³)
DateTimeUTC,F1_M11,P_M11,Q1_M11,Q2_M11,T1_M11,T2_M11,T3_M11,T4_M11,T5_M11,U1_M11,ZSPAN_M11,X2_M11,X0_M11,X1_M11
2023-01-14 05:00:00,,0825.2,4.99,0.00,25.2,23.8,00.0,34.1,27.1,11.6,0004.4,0008.51,0014.99,0007.42
2023-01-14 05:01:00,,0825.3,5.00,0.00,25.2,23.8,00.0,34.1,27.1,11.4,0004.2,0008.66,0015.20,0007.53
2023-01-14 05:02:00,,0825.3,5.01,0.00,25.2,23.7,00.0,34.1,27.0,11.4,0004.3,0008.80,0015.82,0007.64
2023-01-14 05:03:00,,0825.2,5.00,0.00,25.2,23.7,00.0,34.1,27.0,11.7,0004.3,0008.92,0015.39,0007.73
2023-01-14 05:04:00,,0825.2,5.01,0.00,25.2,23.7,00.0,34.1,27.0,11.7,0004.0,0009.02,0015.48,0007.80
2023-01-14 05:05:00,,0825.2,5.01,0.00,25.2,23.7,00.0,34.1,27.0,11.5,0004.5,0009.04,0016.45,0007.84
2023-01-14 05:06:00,,0825.2,4.99,0.00,25.2,23.6,00.0,34.0,27.0,11.5,0005.2,0009.03,0016.95,0007.84
2023-01-14 05:07:00,,0825.2,5.00,0.00,25.1,23.7,00.0,34.0,26.9,11.6,0005.2,0008.98,0018.24,0007.82
2023-01-14 05:08:00,,0825.3,5.00,0.00,25.1,23.6,00.0,34.0,26.9,11.6,0005.0,0009.01,0019.05,0007.80
2023-01-14 05:09:00,,0825.3,5.00,0.00,25.1,23.6,00.0,34.0,26.9,11.7,0004.4,0008.97,0018.85,0007.78
2023-01-14 05:10:00,,0825.2,5.00,0.00,25.1,23.5,00.0,34.0,26.9,11.7,0003.6,0008.91,0019.27,0007.75
2023-01-14 05:11:00,,0825.2,5.00,0.00,25.1,23.4,00.0,34.0,26.8,11.8,0003.6,0008.93,0019.51,0007.71
2023-01-14 05:12:00,,0825.2,5.00,0.00,25.1,23.4,00.0,34.0,26.8,11.6,0004.1,0008.95,0019.63,0007.68
2023-01-14 05:13:00,,0825.2,5.01,0.00,25.0,23.5,00.0,34.0,26.8,11.5,0004.3,0008.86,0019.14,0007.65
2023-01-14 05:14:00,,0825.2,5.00,0.00,25.0,23.5,00.0,34.0,26.8,11.4,0004.2,0008.84,0019.15,0007.66
2023-01-14 05:15:00,,0825.1,5.00,0.00,25.0,23.5,00.0,34.0,26.8,11.3,0004.4,0008.85,0018.92,0007.66
2023-01-14 05:16:00,,0825.1,5.00,0.00,25.0,23.6,00.0,34.0,26.9,11.3,0004.1,0008.86,0018.98,0007.66
2023-01-14 05:17:00,,0825.2,5.00,0.00,25.0,23.6,00.0,34.0,26.9,11.2,0003.3,0008.87,0019.48,0007.67
2023-01-14 05:18:00,,0825.2,4.99,0.00,25.0,23.4,00.0,33.9,26.8,11.1,0002.9,0008.83,0018.54,0007.66
2023-01-14 05:19:00,,0825.1,4.99,0.00,25.0,23.3,00.0,33.9,26.7,11.2,0003.7,0008.73,0017.94,0007.66
2023-01-14 05:20:00,,0825.2,5.02,0.00,25.0,23.2,00.0,33.9,26.7,11.3,0004.0,0008.66,0018.01,0007.65
2023-01-14 05:21:00,,0825.2,5.01,0.00,24.9,23.2,00.0,33.9,26.6,11.2,0005.0,0008.65,0018.04,0007.67
2023-01-14 05:22:00,,0825.2,5.00,0.00,24.9,23.2,00.0,33.9,26.6,11.1,0004.7,0008.61,0018.22,0007.68
2023-01-14 05:23:00,,0825.1,4.99,0.00,24.9,23.3,00.0,33.9,26.6,11.0,0005.3,0008.53,0018.34,0007.69
2023-01-14 05:24:00,,0825.1,5.00,0.00,24.9,23.3,00.0,33.9,26.7,11.0,0005.0,0008.57,0018.61,0007.70
2023-01-14 05:25:00,,0825.1,5.00,0.00,24.9,23.2,00.0,33.9,26.7,10.9,0005.4,0008.55,0018.59,0007.71
2023-01-14 05:26:00,,0825.1,5.00,0.00,24.9,23.1,00.0,33.8,26.6,11.0,0005.8,0008.53,0018.53,0007.71
2023-01-14 05:27:00,,0825.1,5.01,0.00,24.9,23.0,00.0,33.8,26.6,11.1,0005.5,0008.49,0017.71,0007.70
2023-01-14 05:28:00,,0825.1,5.01,0.00,24.8,22.9,00.0,33.8,26.6,11.6,0005.8,0008.41,0016.27,0007.65
2023-01-14 05:29:00,,0825.1,4.99,0.00,24.8,22.9,00.0,33.8,26.5,11.7,0006.0,0008.40,0016.05,0007.63
2023-01-14 05:30:00,,0825.1,4.99,0.00,24.8,22.8,00.0,33.8,26.5,11.7,0005.7,0008.45,0015.68,0007.63
2023-01-14 05:31:00,,0825.1,5.00,0.00,24.7,22.7,00.0,33.8,26.4,11.7,0005.8,0008.47,0016.11,0007.62
2023-01-14 05:32:00,,0825.0,4.99,0.00,24.7,22.7,00.0,33.7,26.4,11.7,0005.5,0008.51,0015.90,0007.62
2023-01-14 05:33:00,,0825.0,5.03,0.00,24.7,22.6,00.0,33.7,26.4,11.6,0005.6,0008.52,0015.40,0007.62
2023-01-14 05:34:00,,0825.0,5.00,0.00,24.6,22.7,00.0,33.7,26.3,11.7,0005.0,0008.52,0015.03,0007.59
2023-01-14 05:35:00,,0824.9,5.00,0.00,24.6,22.8,00.0,33.7,26.3,11.9,0005.0,0008.49,0014.90,0007.55
2023-01-14 05:36:00,,0824.9,5.02,0.00,24.6,22.9,00.0,33.6,26.3,11.8,0004.8,0008.45,0015.15,0007.51
2023-01-14 05:37:00,,0824.9,4.98,0.00,24.6,23.0,00.0,33.6,26.4,11.5,0004.6,0008.41,0015.11,0007.47
2023-01-14 05:38:00,,0824.9,4.99,0.00,24.6,23.1,00.0,33.6,26.4,11.3,0005.8,0008.41,0015.11,0007.47
2023-01-14 05:39:00,,0824.9,5.00,0.00,24.6,23.1,00.0,33.6,26.4,11.4,0004.7,0008.39,0015.05,0007.45
2023-01-14 05:40:00,,0824.9,5.00,0.00,24.6,23.2,00.0,33.6,26.4,11.1,0004.9,0008.40,0014.99,0007.46
2023-01-14 05:41:00,,0824.9,5.00,0.00,24.6,23.2,00.0,33.6,26.4,11.4,0005.8,0008.36,0014.82,0007.44
2023-01-14 05:42:00,,0824.9,4.99,0.00,24.6,23.2,00.0,33.6,26.4,11.7,0006.5,0008.33,0013.96,0007.43
2023-01-14 05:43:00,,0824.9,5.00,0.00,24.6,23.3,00.0,33.6,26.5,11.5,0006.4,0008.30,0013.56,0007.40
2023-01-14 05:44:00,,0824.9,5.00,0.00,24.7,23.3,00.0,33.6,26.5,11.4,0006.2,0008.20,0013.16,0007.35
2023-01-14 05:45:00,,0824.8,5.01,0.00,24.7,23.3,00.0,33.6,26.4,11.3,0006.5,0008.09,0013.02,0007.31
2023-01-14 05:46:00,,0824.7,5.01,0.00,24.7,23.3,00.0,33.6,26.4,11.5,0007.0,0008.04,0012.69,0007.30
2023-01-14 05:47:00,,0824.7,5.00,0.00,24.7,23.3,00.0,33.6,26.5,11.3,0006.7,0008.02,0012.12,0007.29
2023-01-14 05:48:00,,0824.6,5.00,0.00,24.7,23.3,00.0,33.6,26.5,11.2,0006.7,0007.99,0012.17,0007.28
2023-01-14 05:49:00,,0824.7,4.99,0.00,24.7,23.3,00.0,33.6,26.6,11.3,0006.6,0007.94,0012.51,0007.25
2023-01-14 05:50:00,,0824.7,4.99,0.00,24.7,23.3,00.0,33.6,26.5,11.4,0007.1,0007.89,0012.41,0007.21
2023-01-14 05:51:00,,0824.7,5.00,0.00,24.7,23.4,00.0,33.6,26.5,11.5,0007.2,0007.86,0012.53,0007.17
2023-01-14 05:52:00,,0824.7,4.99,0.00,24.7,23.3,00.0,33.6,26.6,11.4,0007.1,0007.85,0012.65,0007.14
2023-01-14 05:53:00,,0824.7,5.00,0.00,24.7,23.3,00.0,33.6,26.6,11.4,0007.1,0007.84,0012.69,0007.12
2023-01-14 05:54:00,,0824.6,5.00,0.00,24.7,23.3,00.0,33.6,26.5,11.5,0007.6,0007.85,0013.10,0007.14
2023-01-14 05:55:00,,0824.6,5.01,0.00,24.7,23.3,00.0,33.6,26.5,11.9,0007.4,0008.05,0013.75,0007.30
2023-01-14 05:56:00,,0824.8,4.99,0.00,24.7,23.3,00.0,33.6,26.5,12.1,0007.2,0008.39,0013.83,0007.59
2023-01-14 05:57:00,,0824.4,5.00,0.00,24.7,23.3,00.0,33.6,26.6,12.1,0007.1,0008.70,0014.46,0007.88
2023-01-14 05:58:00,,0824.4,5.01,0.00,24.7,23.3,00.0,33.6,26.6,12.1,0007.3,0009.00,0015.12,0008.16
2023-01-14 05:59:00,,0824.4,5.01,0.00,24.7,23.4,00.0,33.6,26.6,12.3,0007.2,0009.41,0016.17,0008.50
